KLM1199 KSFO-KLAX

Flight info

Callsign KLM1199
Flight time 0h 55m
Altitude 35000
Route WESLA5 SUSEY EBAYE BURGL IRNMN2
Aircraft B77W/H-SDE1E2E3FGHIJ2J3J4J5M1RWXY/LB1D1

Departure

Time 2026-04-25 01:19
Airport San Francisco International Airport (KSFO)

Arrival

Time 2026-04-25 02:15
Airport Los Angeles International Airport (KLAX)
Time Latitude Longitude Altitude Speed Heading
2026-04-25 01:01 37.63517 -122.38920 19 ft 0 kts
2026-04-25 01:04 37.63516 -122.38920 28 ft 2 kts
2026-04-25 01:05 37.63497 -122.38916 21 ft 3 kts 324°
2026-04-25 01:05 37.63485 -122.38897 22 ft 3 kts 283°
2026-04-25 01:05 37.63484 -122.38871 23 ft 3 kts 262°
2026-04-25 01:05 37.63487 -122.38855 23 ft 0 kts 248°
2026-04-25 01:09 37.63474 -122.38881 22 ft 7 kts 238°
2026-04-25 01:09 37.63448 -122.38937 25 ft 7 kts 242°
2026-04-25 01:09 37.63425 -122.38995 23 ft 7 kts 245°
2026-04-25 01:10 37.63404 -122.39054 25 ft 8 kts 245°
2026-04-25 01:10 37.63378 -122.39120 23 ft 9 kts 240°
2026-04-25 01:10 37.63331 -122.39170 22 ft 9 kts 198°
2026-04-25 01:10 37.63267 -122.39168 24 ft 9 kts 162°
2026-04-25 01:11 37.63205 -122.39147 26 ft 9 kts 193°
2026-04-25 01:11 37.63152 -122.39236 29 ft 10 kts 227°
2026-04-25 01:11 37.63111 -122.39257 29 ft 10 kts 184°
2026-04-25 01:11 37.63045 -122.39232 28 ft 10 kts 155°
2026-04-25 01:12 37.62982 -122.39195 26 ft 10 kts 148°
2026-04-25 01:12 37.62939 -122.39127 28 ft 10 kts 118°
2026-04-25 01:12 37.62907 -122.39049 29 ft 10 kts 117°
2026-04-25 01:12 37.62873 -122.38967 28 ft 11 kts 117°
2026-04-25 01:13 37.62837 -122.38881 29 ft 11 kts 118°
2026-04-25 01:13 37.62800 -122.38793 29 ft 11 kts 118°
2026-04-25 01:13 37.62759 -122.38696 26 ft 14 kts 117°
2026-04-25 01:13 37.62709 -122.38574 26 ft 17 kts 117°
2026-04-25 01:14 37.62653 -122.38441 25 ft 18 kts 118°
2026-04-25 01:14 37.62591 -122.38294 22 ft 20 kts 118°
2026-04-25 01:14 37.62527 -122.38142 25 ft 20 kts 118°
2026-04-25 01:14 37.62463 -122.37990 28 ft 20 kts 118°
2026-04-25 01:15 37.62399 -122.37838 26 ft 20 kts 118°
2026-04-25 01:15 37.62335 -122.37686 30 ft 20 kts 118°
2026-04-25 01:15 37.62272 -122.37533 24 ft 20 kts 117°
2026-04-25 01:15 37.62207 -122.37376 21 ft 21 kts 117°
2026-04-25 01:16 37.62135 -122.37209 19 ft 22 kts 118°
2026-04-25 01:16 37.62063 -122.37039 19 ft 22 kts 117°
2026-04-25 01:16 37.61992 -122.36867 26 ft 22 kts 117°
2026-04-25 01:16 37.61921 -122.36696 27 ft 22 kts 117°
2026-04-25 01:17 37.61850 -122.36524 29 ft 22 kts 117°
2026-04-25 01:17 37.61776 -122.36352 26 ft 23 kts 119°
2026-04-25 01:17 37.61698 -122.36173 24 ft 23 kts 118°
2026-04-25 01:17 37.61625 -122.35992 23 ft 23 kts 117°
2026-04-25 01:18 37.61550 -122.35815 29 ft 20 kts 118°
2026-04-25 01:18 37.61469 -122.35687 29 ft 19 kts 161°
2026-04-25 01:18 37.61380 -122.35770 27 ft 17 kts 272°
2026-04-25 01:18 37.61403 -122.35839 24 ft 0 kts 299°
2026-04-25 01:19 37.61412 -122.35859 23 ft 18 kts 299°
2026-04-25 01:19 37.61613 -122.36345 27 ft 105 kts 298°
2026-04-25 01:19 37.62075 -122.37423 54 ft 167 kts 298°
2026-04-25 01:19 37.62688 -122.38759 680 ft 182 kts 298°
2026-04-25 01:20 37.63291 -122.40138 1681 ft 176 kts 295°
2026-04-25 01:20 37.63840 -122.41569 2429 ft 183 kts 295°
2026-04-25 01:20 37.64427 -122.43067 2947 ft 203 kts 295°
2026-04-25 01:20 37.65118 -122.44789 2986 ft 239 kts 296°
2026-04-25 01:21 37.65896 -122.46698 2976 ft 245 kts 296°
2026-04-25 01:21 37.66643 -122.48574 2968 ft 231 kts 289°
2026-04-25 01:21 37.66774 -122.50573 2993 ft 237 kts 257°
2026-04-25 01:21 37.66016 -122.52456 2998 ft 249 kts 229°
2026-04-25 01:22 37.64611 -122.53664 2984 ft 245 kts 199°
2026-04-25 01:22 37.62886 -122.53814 3020 ft 257 kts 172°
2026-04-25 01:22 37.61163 -122.53190 3019 ft 259 kts 162°
2026-04-25 01:22 37.59476 -122.52379 3007 ft 258 kts 161°
2026-04-25 01:23 37.57811 -122.51562 3015 ft 257 kts 161°
2026-04-25 01:23 37.56128 -122.50756 3012 ft 258 kts 161°
2026-04-25 01:23 37.54449 -122.49971 3001 ft 257 kts 162°
2026-04-25 01:23 37.52756 -122.49190 3205 ft 261 kts 162°
2026-04-25 01:24 37.51036 -122.48403 4119 ft 264 kts 161°
2026-04-25 01:24 37.49343 -122.47591 5139 ft 263 kts 154°
2026-04-25 01:24 37.47874 -122.46119 5831 ft 273 kts 133°
2026-04-25 01:24 37.46597 -122.44351 6645 ft 280 kts 133°
2026-04-25 01:25 37.45284 -122.42534 7580 ft 282 kts 133°
2026-04-25 01:25 37.43949 -122.40692 8505 ft 286 kts 133°
2026-04-25 01:25 37.42596 -122.38830 9398 ft 292 kts 133°
2026-04-25 01:25 37.41213 -122.36935 10286 ft 295 kts 133°
2026-04-25 01:26 37.39790 -122.34989 10848 ft 314 kts 132°
2026-04-25 01:26 37.38240 -122.32872 11095 ft 344 kts 132°
2026-04-25 01:26 37.36551 -122.30571 11518 ft 367 kts 132°
2026-04-25 01:26 37.34796 -122.28185 12476 ft 375 kts 132°
2026-04-25 01:27 37.33012 -122.25765 13653 ft 378 kts 131°
2026-04-25 01:27 37.31207 -122.23321 14644 ft 385 kts 132°
2026-04-25 01:27 37.29360 -122.20820 15488 ft 395 kts 132°
2026-04-25 01:28 37.25566 -122.15689 17249 ft 412 kts 133°
2026-04-25 01:28 37.23591 -122.13022 18116 ft 420 kts 134°
2026-04-25 01:28 37.21597 -122.10334 19079 ft 423 kts 134°
2026-04-25 01:28 37.19577 -122.07611 19906 ft 429 kts 134°
2026-04-25 01:29 37.17526 -122.04851 20738 ft 435 kts 134°
2026-04-25 01:29 37.15452 -122.02062 21561 ft 440 kts 135°
2026-04-25 01:29 37.13342 -121.99227 22347 ft 447 kts 135°
2026-04-25 01:29 37.11213 -121.96370 23140 ft 453 kts 135°
2026-04-25 01:30 37.09044 -121.93460 23871 ft 458 kts 135°
2026-04-25 01:30 37.06853 -121.90522 24508 ft 464 kts 135°
2026-04-25 01:30 37.04637 -121.87555 25149 ft 469 kts 136°
2026-04-25 01:30 37.02400 -121.84558 25757 ft 474 kts 136°
2026-04-25 01:31 37.00126 -121.81517 26314 ft 480 kts 136°
2026-04-25 01:31 36.97832 -121.78455 26871 ft 486 kts 136°
2026-04-25 01:31 36.95497 -121.75340 27442 ft 491 kts 136°
2026-04-25 01:31 36.93145 -121.72204 27991 ft 497 kts 136°
2026-04-25 01:32 36.90794 -121.69074 28506 ft 502 kts 137°
2026-04-25 01:32 36.88402 -121.65890 29031 ft 507 kts 137°
2026-04-25 01:32 36.85975 -121.62664 29540 ft 511 kts 137°
2026-04-25 01:32 36.83525 -121.59409 30018 ft 516 kts 137°
2026-04-25 01:33 36.81063 -121.56141 30526 ft 517 kts 137°
2026-04-25 01:33 36.78605 -121.52881 31141 ft 515 kts 138°
2026-04-25 01:33 36.76147 -121.49622 31747 ft 514 kts 138°
2026-04-25 01:33 36.73695 -121.46376 32328 ft 514 kts 138°
2026-04-25 01:34 36.71244 -121.43137 32870 ft 513 kts 139°
2026-04-25 01:34 36.68793 -121.39901 33441 ft 513 kts 139°
2026-04-25 01:34 36.66344 -121.36672 33993 ft 512 kts 139°
2026-04-25 01:34 36.63905 -121.33458 34438 ft 511 kts 139°
2026-04-25 01:35 36.61458 -121.30238 34867 ft 511 kts 139°
2026-04-25 01:35 36.59040 -121.27059 35005 ft 512 kts 140°
2026-04-25 01:35 36.54142 -121.20628 34973 ft 512 kts 140°
2026-04-25 01:36 36.49239 -121.14201 34961 ft 513 kts 140°
2026-04-25 01:36 36.44325 -121.07772 34954 ft 514 kts 140°
2026-04-25 01:37 36.39489 -121.01206 34940 ft 517 kts 137°
2026-04-25 01:37 36.34830 -120.94399 34943 ft 518 kts 136°
2026-04-25 01:38 36.30164 -120.87583 34932 ft 518 kts 137°
2026-04-25 01:38 36.25459 -120.80815 34929 ft 517 kts 137°
2026-04-25 01:39 36.20751 -120.74093 34918 ft 517 kts 138°
2026-04-25 01:39 36.16037 -120.67375 34916 ft 516 kts 138°
2026-04-25 01:40 36.11337 -120.60684 34918 ft 514 kts 138°
2026-04-25 01:40 36.06641 -120.54006 34916 ft 514 kts 138°
2026-04-25 01:41 36.01938 -120.47342 34918 ft 514 kts 138°
2026-04-25 01:41 35.97217 -120.40666 34932 ft 517 kts 138°
2026-04-25 01:42 35.92473 -120.33959 34918 ft 520 kts 138°
2026-04-25 01:42 35.87586 -120.27520 34910 ft 512 kts 146°
2026-04-25 01:43 35.82008 -120.22263 34903 ft 498 kts 157°
2026-04-25 01:43 35.76081 -120.17899 34905 ft 496 kts 158°
2026-04-25 01:44 35.70179 -120.13504 34913 ft 496 kts 158°
2026-04-25 01:44 35.64290 -120.09062 34912 ft 495 kts 158°
2026-04-25 01:45 35.58418 -120.04625 34907 ft 495 kts 158°
2026-04-25 01:45 35.52541 -120.00191 34916 ft 494 kts 158°
2026-04-25 01:46 35.46681 -119.95779 34916 ft 494 kts 158°
2026-04-25 01:46 35.40816 -119.91370 34902 ft 493 kts 158°
2026-04-25 01:47 35.37884 -119.89169 34637 ft 497 kts 158°
2026-04-25 01:47 35.34923 -119.86950 34124 ft 497 kts 158°
2026-04-25 01:47 35.31991 -119.84748 33605 ft 492 kts 158°
2026-04-25 01:47 35.29090 -119.82572 33052 ft 487 kts 158°
2026-04-25 01:48 35.26271 -119.80263 32563 ft 488 kts 153°
2026-04-25 01:48 35.23564 -119.77758 32090 ft 486 kts 150°
2026-04-25 01:48 35.20929 -119.75200 31586 ft 482 kts 149°
2026-04-25 01:48 35.18316 -119.72652 31120 ft 478 kts 149°
2026-04-25 01:49 35.15719 -119.70151 30646 ft 474 kts 150°
2026-04-25 01:49 35.13124 -119.67692 30178 ft 470 kts 150°
2026-04-25 01:49 35.10533 -119.65267 29660 ft 467 kts 150°
2026-04-25 01:49 35.07956 -119.62869 29136 ft 464 kts 150°
2026-04-25 01:50 35.06261 -119.61296 28830 ft 461 kts 150°
2026-04-25 01:50 35.02860 -119.58140 28167 ft 456 kts 150°
2026-04-25 01:50 35.01188 -119.56589 27846 ft 454 kts 150°
2026-04-25 01:50 34.98686 -119.54269 27384 ft 451 kts 150°
2026-04-25 01:51 34.95382 -119.51205 26753 ft 448 kts 150°
2026-04-25 01:51 34.92909 -119.48913 26297 ft 446 kts 150°
2026-04-25 01:51 34.90441 -119.46637 25833 ft 443 kts 150°
2026-04-25 01:51 34.88772 -119.45130 25509 ft 442 kts 151°
2026-04-25 01:52 34.86332 -119.42952 25058 ft 439 kts 151°
2026-04-25 01:52 34.83869 -119.40763 24615 ft 438 kts 151°
2026-04-25 01:52 34.81413 -119.38576 24153 ft 437 kts 151°
2026-04-25 01:52 34.78965 -119.36392 23690 ft 436 kts 150°
2026-04-25 01:53 34.76516 -119.34206 23161 ft 436 kts 150°
2026-04-25 01:53 34.74070 -119.32027 22675 ft 434 kts 150°
2026-04-25 01:53 34.71631 -119.29887 22215 ft 431 kts 151°
2026-04-25 01:53 34.69205 -119.27775 21765 ft 428 kts 151°
2026-04-25 01:54 34.66794 -119.25673 21318 ft 424 kts 150°
2026-04-25 01:54 34.64406 -119.23591 20896 ft 421 kts 150°
2026-04-25 01:54 34.62023 -119.21534 20461 ft 419 kts 150°
2026-04-25 01:54 34.59642 -119.19487 20039 ft 417 kts 150°
2026-04-25 01:55 34.57284 -119.17456 19599 ft 415 kts 150°
2026-04-25 01:55 34.54946 -119.15428 19191 ft 412 kts 149°
2026-04-25 01:55 34.52632 -119.13380 18779 ft 411 kts 149°
2026-04-25 01:55 34.50333 -119.11333 18341 ft 410 kts 149°
2026-04-25 01:56 34.48033 -119.09289 17864 ft 408 kts 149°
2026-04-25 01:56 34.45778 -119.07292 17469 ft 405 kts 149°
2026-04-25 01:56 34.43513 -119.05292 17044 ft 401 kts 149°
2026-04-25 01:56 34.41252 -119.03329 16628 ft 398 kts 149°
2026-04-25 01:57 34.36775 -118.99465 15804 ft 392 kts 149°
2026-04-25 01:57 34.34571 -118.97559 15414 ft 388 kts 148°
2026-04-25 01:57 34.32401 -118.95636 15010 ft 382 kts 147°
2026-04-25 01:58 34.30312 -118.93718 14613 ft 371 kts 147°
2026-04-25 01:58 34.28289 -118.91861 14234 ft 360 kts 147°
2026-04-25 01:58 34.26280 -118.90035 13881 ft 363 kts 147°
2026-04-25 01:58 34.24263 -118.88207 13469 ft 363 kts 146°
2026-04-25 01:59 34.22254 -118.86365 13060 ft 360 kts 146°
2026-04-25 01:59 34.20269 -118.84536 12727 ft 357 kts 146°
2026-04-25 01:59 34.18295 -118.82721 12364 ft 355 kts 146°
2026-04-25 01:59 34.16345 -118.80923 11974 ft 352 kts 144°
2026-04-25 02:00 34.14498 -118.79025 11739 ft 344 kts 141°
2026-04-25 02:00 34.12775 -118.77114 11597 ft 335 kts 140°
2026-04-25 02:00 34.11078 -118.75215 11495 ft 323 kts 140°
2026-04-25 02:00 34.09443 -118.73407 11359 ft 315 kts 141°
2026-04-25 02:01 34.07829 -118.71646 11127 ft 310 kts 141°
2026-04-25 02:01 34.06272 -118.69953 11020 ft 300 kts 141°
2026-04-25 02:01 34.04734 -118.68286 10836 ft 295 kts 141°
2026-04-25 02:01 34.03352 -118.66496 10450 ft 294 kts 122°
2026-04-25 02:02 34.02704 -118.64156 10051 ft 295 kts 97°
2026-04-25 02:02 34.02495 -118.61705 9715 ft 294 kts 96°
2026-04-25 02:02 34.02281 -118.59262 9413 ft 292 kts 97°
2026-04-25 02:02 34.02060 -118.56842 9128 ft 289 kts 97°
2026-04-25 02:03 34.01838 -118.54447 8814 ft 287 kts 97°
2026-04-25 02:03 34.01620 -118.52090 8690 ft 276 kts 97°
2026-04-25 02:03 34.01411 -118.49830 8601 ft 266 kts 97°
2026-04-25 02:03 34.01208 -118.47645 8481 ft 258 kts 98°
2026-04-25 02:04 34.01044 -118.45513 8318 ft 254 kts 89°
2026-04-25 02:04 34.01298 -118.43428 8215 ft 254 kts 78°
2026-04-25 02:04 34.01706 -118.41350 8155 ft 255 kts 77°
2026-04-25 02:04 34.02103 -118.39265 8097 ft 255 kts 78°
2026-04-25 02:05 34.02482 -118.37177 8054 ft 256 kts 78°
2026-04-25 02:05 34.02833 -118.35062 7974 ft 256 kts 82°
2026-04-25 02:05 34.03064 -118.32923 7826 ft 259 kts 84°
2026-04-25 02:05 34.03270 -118.30778 7440 ft 255 kts 84°
2026-04-25 02:06 34.03475 -118.28679 7052 ft 248 kts 83°
2026-04-25 02:06 34.03707 -118.26645 6680 ft 242 kts 83°
2026-04-25 02:06 34.03941 -118.24681 6397 ft 232 kts 83°
2026-04-25 02:06 34.04178 -118.22742 5934 ft 237 kts 83°
2026-04-25 02:07 34.04421 -118.20785 5418 ft 240 kts 82°
2026-04-25 02:07 34.04671 -118.18783 4950 ft 240 kts 82°
2026-04-25 02:07 34.04917 -118.16799 4455 ft 238 kts 82°
2026-04-25 02:07 34.05063 -118.14836 3931 ft 234 kts 94°
2026-04-25 02:08 34.04723 -118.12973 3691 ft 224 kts 114°
2026-04-25 02:08 34.03909 -118.11414 3580 ft 217 kts 134°
2026-04-25 02:08 34.02759 -118.10340 3570 ft 202 kts 154°
2026-04-25 02:08 34.01482 -118.09710 3586 ft 198 kts 161°
2026-04-25 02:09 34.00165 -118.09142 3586 ft 203 kts 161°
2026-04-25 02:09 33.98831 -118.08712 3571 ft 195 kts 179°
2026-04-25 02:09 33.97580 -118.09192 3573 ft 193 kts 219°
2026-04-25 02:09 33.96876 -118.10544 3581 ft 195 kts 253°
2026-04-25 02:10 33.96537 -118.12138 3588 ft 199 kts 255°
2026-04-25 02:10 33.96266 -118.13777 3590 ft 200 kts 259°
2026-04-25 02:10 33.96069 -118.15410 3577 ft 194 kts 261°
2026-04-25 02:10 33.95901 -118.17011 3567 ft 192 kts 262°
2026-04-25 02:11 33.95735 -118.18632 3312 ft 195 kts 262°
2026-04-25 02:11 33.95572 -118.20237 3061 ft 192 kts 261°
2026-04-25 02:11 33.95414 -118.21798 2798 ft 181 kts 261°
2026-04-25 02:11 33.95266 -118.23257 2586 ft 173 kts 261°
2026-04-25 02:12 33.95121 -118.24677 2365 ft 171 kts 261°
2026-04-25 02:12 33.94979 -118.26070 2142 ft 164 kts 262°
2026-04-25 02:12 33.94838 -118.27455 1919 ft 168 kts 262°
2026-04-25 02:12 33.94702 -118.28804 1707 ft 155 kts 262°
2026-04-25 02:13 33.94573 -118.30053 1464 ft 146 kts 262°
2026-04-25 02:13 33.94453 -118.31230 1291 ft 140 kts 262°
2026-04-25 02:13 33.94332 -118.32430 1107 ft 148 kts 261°
2026-04-25 02:13 33.94204 -118.33676 900 ft 150 kts 263°
2026-04-25 02:14 33.94077 -118.34915 696 ft 148 kts 263°
2026-04-25 02:14 33.93954 -118.36134 479 ft 145 kts 263°
2026-04-25 02:14 33.93831 -118.37334 308 ft 145 kts 263°
2026-04-25 02:14 33.93713 -118.38530 156 ft 142 kts 263°
2026-04-25 02:15 33.93599 -118.39616 132 ft 117 kts 265°
2026-04-25 02:15 33.93524 -118.40368 127 ft 64 kts 262°
2026-04-25 02:15 33.93482 -118.40685 131 ft 19 kts 240°
2026-04-25 02:15 33.93381 -118.40679 126 ft 15 kts 103°
2026-04-25 02:16 33.93379 -118.40630 126 ft 0 kts 89°
2026-04-25 02:16 33.93382 -118.40558 129 ft 16 kts 85°
2026-04-25 02:16 33.93394 -118.40429 129 ft 15 kts 82°
2026-04-25 02:16 33.93392 -118.40331 126 ft 10 kts 119°
2026-04-25 02:17 33.93332 -118.40296 128 ft 0 kts 175°
2026-04-25 02:17 33.93326 -118.40296 128 ft 4 kts 175°
2026-04-25 02:17 33.93324 -118.40295 126 ft 0 kts 175°